{"data":{"norad_id":63569,"epoch":"2026-09-20T09:36:17.063136Z","epoch_age_seconds":164591,"freshness":"FRESH","line1":"1 63569U 25076A   26263.40019749  .00009745  00000+0  36304-3 0  9995","line2":"2 63569  43.0006 306.0559 0001337 273.8914  86.1785 15.27593019 81567","mean_motion":15.27593019,"eccentricity":0.0001337,"inclination_deg":43.0006,"raan_deg":306.0559,"arg_perigee_deg":273.8914,"mean_anomaly_deg":86.1785,"bstar":0.00036304,"rev_number":8156,"period_min":94.265945319825,"perigee_km":482.09277737798,"apogee_km":483.92744811593,"semimajor_km":6861.147112747,"source":"CELESTRAK","updated_at":"2026-09-21T09:00:35.044394Z"}}